Location: Newark
(33.6333°S, 78.8500°W)
Time: 13:23:21
(UTC+00:00)

Tiros 1 despin weight - Pass Details

Date: 28 September 2019
Orbit: 593 x 643 km, 48.2° (Epoch: 20 October)

Event Time Altitude Azimuth Distance (km) Brightness Sun altitude
Rises 05:30:43 0° 234° (SW) 2,900 - -54.0°
Reaches altitude 10° 05:34:17 10° 206° (SSW) 2,007 - -53.8°
Maximum altitude 05:36:26 13° 178° (S) 1,820 - -53.7°
Drops below altitude 10° 05:38:37 10° 150° (SSE) 2,022 - -53.6°
Sets 05:42:14 0° 122° (ESE) 2,941 - -53.5°
